PIA359 OPLA-OPIS

Flight info

Callsign PIA359
Flight time 0h 37m
Altitude 20000
Route AKBER J121 INDEK
Aircraft A20N/M-SDE2E3FGHIRWXY/LB1

Departure

Time 2026-05-09 15:23
Airport Allama Iqbal International Airport (OPLA)

Arrival

Time 2026-05-09 16:00
Airport Islamabad International Airport (OPIS)
Time Latitude Longitude Altitude Speed Heading
2026-05-09 15:01 31.52170 74.40948 722 ft 0 kts 90°
2026-05-09 15:07 31.52170 74.40931 723 ft 3 kts 88°
2026-05-09 15:08 31.52169 74.40903 723 ft 3 kts 84°
2026-05-09 15:08 31.52157 74.40852 723 ft 3 kts 39°
2026-05-09 15:08 31.52146 74.40845 724 ft 0 kts
2026-05-09 15:15 31.52158 74.40845 722 ft 4 kts
2026-05-09 15:15 31.52181 74.40845 723 ft 6 kts
2026-05-09 15:15 31.52258 74.40846 722 ft 10 kts
2026-05-09 15:15 31.52339 74.40844 721 ft 9 kts 359°
2026-05-09 15:16 31.52393 74.40823 722 ft 9 kts 307°
2026-05-09 15:16 31.52405 74.40737 721 ft 12 kts 269°
2026-05-09 15:16 31.52461 74.40673 723 ft 14 kts
2026-05-09 15:16 31.52567 74.40674 721 ft 16 kts
2026-05-09 15:17 31.52689 74.40674 722 ft 19 kts
2026-05-09 15:17 31.52826 74.40676 721 ft 21 kts
2026-05-09 15:17 31.52975 74.40682 722 ft 22 kts
2026-05-09 15:17 31.53135 74.40683 722 ft 24 kts 360°
2026-05-09 15:18 31.53297 74.40690 723 ft 18 kts
2026-05-09 15:18 31.53415 74.40691 725 ft 14 kts
2026-05-09 15:18 31.53516 74.40688 722 ft 16 kts 355°
2026-05-09 15:18 31.53581 74.40650 722 ft 9 kts 321°
2026-05-09 15:19 31.53608 74.40620 723 ft 0 kts 316°
2026-05-09 15:21 31.53615 74.40612 722 ft 3 kts 316°
2026-05-09 15:21 31.53636 74.40587 723 ft 6 kts 310°
2026-05-09 15:21 31.53649 74.40535 723 ft 6 kts 274°
2026-05-09 15:21 31.53649 74.40493 723 ft 6 kts 263°
2026-05-09 15:22 31.53612 74.40484 723 ft 7 kts 178°
2026-05-09 15:22 31.53601 74.40484 724 ft 1 kts 180°
2026-05-09 15:22 31.53504 74.40483 725 ft 44 kts 181°
2026-05-09 15:22 31.52954 74.40473 721 ft 111 kts 180°
2026-05-09 15:23 31.52000 74.40456 724 ft 161 kts 181°
2026-05-09 15:23 31.51222 74.40442 941 ft 169 kts 181°
2026-05-09 15:23 31.50074 74.40413 1589 ft 166 kts 181°
2026-05-09 15:23 31.48499 74.40367 2297 ft 173 kts 181°
2026-05-09 15:24 31.47255 74.40334 2713 ft 186 kts 182°
2026-05-09 15:24 31.46365 74.40149 2908 ft 199 kts 202°
2026-05-09 15:24 31.45235 74.39126 3217 ft 217 kts 237°
2026-05-09 15:24 31.44736 74.37414 3481 ft 239 kts 269°
2026-05-09 15:25 31.45054 74.35435 3873 ft 259 kts 291°
2026-05-09 15:25 31.45848 74.33470 4432 ft 271 kts 298°
2026-05-09 15:25 31.46739 74.31521 5306 ft 272 kts 298°
2026-05-09 15:26 31.48419 74.27510 6963 ft 276 kts 295°
2026-05-09 15:26 31.49205 74.25441 7742 ft 279 kts 294°
2026-05-09 15:26 31.49981 74.23345 8528 ft 282 kts 294°
2026-05-09 15:26 31.50759 74.21226 9301 ft 284 kts 295°
2026-05-09 15:27 31.51599 74.19121 10023 ft 286 kts 304°
2026-05-09 15:27 31.52979 74.17407 10408 ft 299 kts 327°
2026-05-09 15:27 31.54949 74.16432 10601 ft 320 kts 346°
2026-05-09 15:27 31.57191 74.15905 10887 ft 335 kts 350°
2026-05-09 15:28 31.59502 74.15452 11522 ft 338 kts 350°
2026-05-09 15:28 31.61835 74.14985 12190 ft 341 kts 350°
2026-05-09 15:28 31.64189 74.14487 12775 ft 347 kts 350°
2026-05-09 15:28 31.66571 74.13960 13438 ft 350 kts 349°
2026-05-09 15:29 31.68968 74.13416 14055 ft 352 kts 349°
2026-05-09 15:29 31.71382 74.12864 14641 ft 355 kts 349°
2026-05-09 15:29 31.73785 74.12312 15225 ft 357 kts 349°
2026-05-09 15:29 31.76230 74.11751 15808 ft 360 kts 349°
2026-05-09 15:30 31.78702 74.11184 16384 ft 363 kts 349°
2026-05-09 15:30 31.81187 74.10614 16957 ft 365 kts 348°
2026-05-09 15:30 31.83637 74.09791 17510 ft 368 kts 339°
2026-05-09 15:30 31.85953 74.08461 18064 ft 372 kts 329°
2026-05-09 15:31 31.88061 74.06677 18558 ft 375 kts 322°
2026-05-09 15:31 31.90109 74.04752 19029 ft 378 kts 323°
2026-05-09 15:31 31.92178 74.02823 19509 ft 381 kts 323°
2026-05-09 15:31 31.94270 74.00879 19743 ft 383 kts 323°
2026-05-09 15:32 31.96387 73.98963 19811 ft 383 kts 324°
2026-05-09 15:32 31.98516 73.97077 19815 ft 383 kts 324°
2026-05-09 15:32 32.00647 73.95195 19816 ft 383 kts 324°
2026-05-09 15:32 32.02775 73.93308 19815 ft 383 kts 324°
2026-05-09 15:33 32.04899 73.91417 19812 ft 383 kts 324°
2026-05-09 15:33 32.06999 73.89543 19813 ft 383 kts 324°
2026-05-09 15:33 32.09125 73.87641 19812 ft 383 kts 324°
2026-05-09 15:33 32.11246 73.85742 19812 ft 383 kts 324°
2026-05-09 15:34 32.13369 73.83841 19814 ft 384 kts 323°
2026-05-09 15:34 32.15499 73.81932 19815 ft 384 kts 323°
2026-05-09 15:34 32.17623 73.80027 19815 ft 383 kts 323°
2026-05-09 15:34 32.19750 73.78119 19818 ft 383 kts 323°
2026-05-09 15:35 32.21873 73.76212 19820 ft 383 kts 323°
2026-05-09 15:35 32.23996 73.74305 19820 ft 383 kts 323°
2026-05-09 15:35 32.26119 73.72397 19821 ft 383 kts 323°
2026-05-09 15:35 32.28241 73.70488 19821 ft 383 kts 323°
2026-05-09 15:36 32.30367 73.68575 19821 ft 383 kts 323°
2026-05-09 15:36 32.32493 73.66660 19821 ft 384 kts 323°
2026-05-09 15:36 32.34616 73.64748 19817 ft 384 kts 323°
2026-05-09 15:36 32.36742 73.62832 19820 ft 384 kts 323°
2026-05-09 15:37 32.38840 73.60939 19822 ft 384 kts 323°
2026-05-09 15:37 32.40966 73.59020 19826 ft 384 kts 323°
2026-05-09 15:37 32.43088 73.57104 19826 ft 384 kts 323°
2026-05-09 15:37 32.45209 73.55187 19826 ft 384 kts 323°
2026-05-09 15:38 32.47334 73.53265 19824 ft 384 kts 323°
2026-05-09 15:38 32.49460 73.51341 19829 ft 384 kts 323°
2026-05-09 15:38 32.51582 73.49420 19832 ft 384 kts 323°
2026-05-09 15:38 32.53712 73.47491 19831 ft 384 kts 323°
2026-05-09 15:39 32.55829 73.45572 19831 ft 384 kts 323°
2026-05-09 15:39 32.57955 73.43644 19836 ft 384 kts 323°
2026-05-09 15:39 32.60078 73.41717 19837 ft 385 kts 323°
2026-05-09 15:39 32.62202 73.39789 19838 ft 385 kts 323°
2026-05-09 15:40 32.64321 73.37863 19837 ft 385 kts 323°
2026-05-09 15:40 32.66419 73.35955 19842 ft 385 kts 323°
2026-05-09 15:40 32.68548 73.34018 19842 ft 385 kts 323°
2026-05-09 15:40 32.70670 73.32087 19842 ft 385 kts 323°
2026-05-09 15:41 32.72797 73.30149 19846 ft 385 kts 323°
2026-05-09 15:41 32.74969 73.28295 19845 ft 385 kts 329°
2026-05-09 15:41 32.77373 73.26907 19848 ft 385 kts 340°
2026-05-09 15:41 32.79952 73.26071 19848 ft 385 kts 350°
2026-05-09 15:42 32.82605 73.25631 19848 ft 385 kts 352°
2026-05-09 15:42 32.85264 73.25195 19848 ft 385 kts 352°
2026-05-09 15:42 32.87915 73.24755 19854 ft 385 kts 352°
2026-05-09 15:42 32.90568 73.24312 19854 ft 385 kts 352°
2026-05-09 15:43 32.93220 73.23870 19848 ft 385 kts 352°
2026-05-09 15:43 32.95875 73.23428 19671 ft 385 kts 352°
2026-05-09 15:43 32.98493 73.22992 19451 ft 383 kts 352°
2026-05-09 15:43 33.01127 73.22554 19229 ft 381 kts 352°
2026-05-09 15:44 33.03746 73.22118 19000 ft 379 kts 352°
2026-05-09 15:44 33.06365 73.21681 18612 ft 380 kts 352°
2026-05-09 15:44 33.08996 73.21243 18044 ft 382 kts 352°
2026-05-09 15:44 33.11628 73.20804 17467 ft 379 kts 352°
2026-05-09 15:45 33.14222 73.20371 16929 ft 375 kts 352°
2026-05-09 15:45 33.16791 73.19942 16379 ft 371 kts 352°
2026-05-09 15:45 33.19342 73.19516 15828 ft 368 kts 352°
2026-05-09 15:45 33.21873 73.19092 15306 ft 365 kts 352°
2026-05-09 15:46 33.24355 73.18676 15087 ft 353 kts 352°
2026-05-09 15:46 33.26741 73.18275 14967 ft 339 kts 352°
2026-05-09 15:46 33.29008 73.17895 14846 ft 326 kts 352°
2026-05-09 15:46 33.31216 73.17524 14743 ft 314 kts 352°
2026-05-09 15:47 33.33334 73.17167 14650 ft 301 kts 352°
2026-05-09 15:47 33.35367 73.16823 14559 ft 289 kts 352°
2026-05-09 15:47 33.37324 73.16493 14394 ft 281 kts 352°
2026-05-09 15:47 33.39184 73.15881 14091 ft 277 kts 331°
2026-05-09 15:48 33.40628 73.14387 13698 ft 278 kts 305°
2026-05-09 15:48 33.41352 73.12261 13346 ft 277 kts 282°
2026-05-09 15:48 33.41669 73.09996 13013 ft 274 kts 280°
2026-05-09 15:48 33.41967 73.07751 12654 ft 273 kts 280°
2026-05-09 15:49 33.42269 73.05510 12306 ft 271 kts 281°
2026-05-09 15:49 33.42580 73.03287 11949 ft 270 kts 280°
2026-05-09 15:49 33.42892 73.01102 11604 ft 269 kts 280°
2026-05-09 15:49 33.43209 72.98896 11253 ft 268 kts 281°
2026-05-09 15:50 33.43525 72.96698 10905 ft 267 kts 281°
2026-05-09 15:50 33.43842 72.94503 10548 ft 267 kts 280°
2026-05-09 15:50 33.44154 72.92329 10321 ft 261 kts 280°
2026-05-09 15:50 33.44452 72.90240 10204 ft 250 kts 280°
2026-05-09 15:51 33.44745 72.88199 9947 ft 247 kts 280°
2026-05-09 15:51 33.45037 72.86176 9630 ft 246 kts 280°
2026-05-09 15:51 33.45327 72.84161 9284 ft 244 kts 280°
2026-05-09 15:51 33.45613 72.82162 8816 ft 243 kts 280°
2026-05-09 15:52 33.46181 72.78174 8082 ft 242 kts 279°
2026-05-09 15:52 33.46463 72.76194 7791 ft 241 kts 279°
2026-05-09 15:52 33.46744 72.74216 7501 ft 240 kts 279°
2026-05-09 15:53 33.47018 72.72293 7375 ft 228 kts 279°
2026-05-09 15:53 33.47276 72.70469 7274 ft 217 kts 279°
2026-05-09 15:53 33.47525 72.68713 7043 ft 213 kts 279°
2026-05-09 15:53 33.47773 72.66964 6745 ft 213 kts 279°
2026-05-09 15:54 33.48019 72.65221 6463 ft 212 kts 279°
2026-05-09 15:54 33.48264 72.63487 6191 ft 211 kts 279°
2026-05-09 15:54 33.48508 72.61759 5900 ft 210 kts 279°
2026-05-09 15:54 33.48827 72.60061 5606 ft 210 kts 294°
2026-05-09 15:55 33.49744 72.58710 5238 ft 214 kts 328°
2026-05-09 15:55 33.51134 72.58224 4926 ft 215 kts
2026-05-09 15:55 33.52590 72.58603 4639 ft 215 kts 17°
2026-05-09 15:55 33.54007 72.59156 4368 ft 214 kts 18°
2026-05-09 15:56 33.55418 72.59723 4105 ft 213 kts 18°
2026-05-09 15:56 33.56780 72.60371 4005 ft 213 kts 35°
2026-05-09 15:56 33.57645 72.61761 4007 ft 211 kts 76°
2026-05-09 15:56 33.57755 72.63477 4021 ft 200 kts 96°
2026-05-09 15:57 33.57551 72.65050 3993 ft 180 kts 103°
2026-05-09 15:57 33.57323 72.66420 3986 ft 158 kts 101°
2026-05-09 15:57 33.57113 72.67762 3829 ft 168 kts 102°
2026-05-09 15:57 33.56904 72.69110 3577 ft 160 kts 102°
2026-05-09 15:58 33.56700 72.70412 3379 ft 160 kts 102°
2026-05-09 15:58 33.56496 72.71725 3174 ft 159 kts 102°
2026-05-09 15:58 33.56293 72.73021 2976 ft 158 kts 102°
2026-05-09 15:58 33.56099 72.74271 2789 ft 146 kts 102°
2026-05-09 15:59 33.55917 72.75437 2614 ft 142 kts 102°
2026-05-09 15:59 33.55739 72.76580 2442 ft 140 kts 102°
2026-05-09 15:59 33.55566 72.77726 2251 ft 135 kts 102°
2026-05-09 15:59 33.55402 72.78811 2072 ft 134 kts 103°
2026-05-09 16:00 33.55221 72.79910 1896 ft 135 kts 102°
2026-05-09 16:00 33.55166 72.80283 1845 ft 134 kts 102°
2026-05-09 16:00 33.54908 72.81924 1754 ft 85 kts 100°
2026-05-09 16:00 33.54836 72.82384 1748 ft 28 kts 101°
2026-05-09 16:01 33.54802 72.82608 1750 ft 27 kts 101°
2026-05-09 16:01 33.54768 72.82824 1762 ft 25 kts 95°
2026-05-09 16:01 33.54786 72.83030 1764 ft 25 kts 73°
2026-05-09 16:01 33.54854 72.83209 1764 ft 23 kts 27°
2026-05-09 16:02 33.54929 72.83126 1764 ft 17 kts 272°
2026-05-09 16:02 33.54967 72.82793 1759 ft 23 kts 281°
2026-05-09 16:02 33.54995 72.82602 1762 ft 19 kts 280°
2026-05-09 16:03 33.55019 72.82468 1755 ft 14 kts 302°
2026-05-09 16:03 33.55105 72.82458 1766 ft 11 kts
2026-05-09 16:03 33.55155 72.82469 1768 ft 0 kts 10°
2026-05-09 16:04 33.55159 72.82469 1769 ft 2 kts 10°
2026-05-09 16:04 33.55178 72.82474 1769 ft 4 kts 10°
2026-05-09 16:04 33.55209 72.82484 1771 ft 5 kts 28°
2026-05-09 16:05 33.55212 72.82526 1771 ft 6 kts 107°
2026-05-09 16:05 33.55194 72.82586 1769 ft 9 kts 104°
2026-05-09 16:05 33.55182 72.82669 1771 ft 11 kts 100°
2026-05-09 16:05 33.55166 72.82766 1771 ft 13 kts 101°
2026-05-09 16:06 33.55149 72.82876 1769 ft 12 kts 98°
2026-05-09 16:06 33.55151 72.82925 1770 ft 5 kts 78°
2026-05-09 16:06 33.55171 72.82968 1768 ft 7 kts 56°
2026-05-09 16:06 33.55194 72.83009 1769 ft 5 kts 56°
2026-05-09 16:07 33.55221 72.83038 1773 ft 5 kts 10°
2026-05-09 16:07 33.55256 72.83007 1769 ft 7 kts 315°
2026-05-09 16:07 33.55281 72.82986 1772 ft 2 kts 326°
2026-05-09 16:07 33.55291 72.82978 1771 ft 1 kts 325°
2026-05-09 16:08 33.55293 72.82976 1769 ft 0 kts 325°